QPF
0.00 0.00 0.00 0.00 0.00 0.00 0.00 0.00 0.00 0.00 0.00 0.00 0.00 0.00 0.00 0.00 0.00 0.00 0.00 0.00 0.00 0.00 0.00 0.00 0.00 0.00 0.00 0.00 0.00 0.01 0.01 0.03 0.04 0.01 0.00 0.00 0.01 0.01 0.01 0.01 0.01 0.01 0.01
0.00 0.00 0.00 0.00 0.00 0.00 0.00 0.00 0.00 0.00 0.00 0.00 0.00 0.00 0.00 0.00 0.00 0.00 0.00 0.00 0.00 0.00 0.00 0.00 0.00 0.00 0.00 0.00 0.01 0.01 0.01 0.02 0.03 0.02 0.00 0.00 0.00 0.00 0.00 0.01 0.01 0.01 0.01
0.00 0.00 0.00 0.00 0.00 0.00 0.00 0.00 0.00 0.00 0.00 0.00 0.00 0.00 0.00 0.00 0.00 0.00 0.00 0.00 0.00 0.00 0.00 0.00 0.00 0.01 0.01 0.00 0.01 0.01 0.02 0.02 0.02 0.03 0.01 0.00 0.00 0.00 0.00 0.00 0.00 0.00 0.01
0.00 0.00 0.00 0.00 0.00 0.00 0.00 0.00 0.00 0.00 0.00 0.00 0.00 0.00 0.00 0.00 0.00 0.00 0.00 0.00 0.00 0.00 0.00 0.00 0.01 0.01 0.01 0.01 0.02 0.02 0.03 0.04 0.03 0.03 0.01 0.00 0.00 0.00 0.00 0.00 0.00 0.00 0.00
0.00 0.00 0.00 0.00 0.00 0.00 0.00 0.00 0.00 0.00 0.00 0.00 0.00 0.00 0.00 0.00 0.00 0.00 0.00 0.00 0.00 0.01 0.01 0.01 0.01 0.01 0.02 0.04 0.07 0.08 0.09 0.08 0.05 0.03 0.02 0.01 0.00 0.00 0.00 0.00 0.00 0.00 0.00
0.00 0.00 0.00 0.00 0.00 0.00 0.00 0.00 0.00 0.00 0.00 0.00 0.00 0.00 0.00 0.00 0.00 0.00 0.00 0.00 0.01 0.01 0.01 0.01 0.01 0.01 0.01 0.02 0.04 0.06 0.07 0.08 0.08 0.06 0.05 0.03 0.01 0.00 0.00 0.01 0.01 0.01 0.00
0.00 0.00 0.00 0.00 0.00 0.00 0.00 0.00 0.00 0.00 0.00 0.00 0.00 0.00 0.00 0.00 0.00 0.00 0.00 0.01 0.01 0.01 0.01 0.00 0.00 0.00 0.01 0.01 0.02 0.02 0.03 0.03 0.05 0.06 0.05 0.02 0.01 0.01 0.01 0.01 0.01 0.01 0.01
0.00 0.00 0.00 0.00 0.00 0.00 0.00 0.00 0.00 0.01 0.00 0.00 0.00 0.00 0.00 0.00 0.00 0.00 0.00 0.00 0.00 0.00 0.00 0.00 0.00 0.00 0.00 0.02 0.06 0.06 0.03 0.01 0.01 0.02 0.02 0.01 0.01 0.01 0.02 0.02 0.02 0.02 0.01
0.00 0.00 0.00 0.00 0.00 0.00 0.00 0.00 0.01 0.01 0.01 0.01 0.01 0.01 0.00 0.00 0.00 0.00 0.00 0.00 0.00 0.00 0.00 0.00 0.01 0.01 0.01 0.05 0.09 0.08 0.04 0.02 0.01 0.01 0.01 0.01 0.02 0.02 0.03 0.04 0.03 0.02 0.01
0.00 0.00 0.00 0.00 0.00 0.00 0.00 0.01 0.01 0.01 0.01 0.01 0.01 0.01 0.00 0.00 0.00 0.00 0.00 0.00 0.01 0.00 0.00 0.00 0.00 0.01 0.03 0.06 0.08 0.06 0.03 0.02 0.01 0.01 0.00 0.00 0.01 0.01 0.01 0.02 0.02 0.03 0.02
0.00 0.00 0.00 0.00 0.00 0.00 0.01 0.01 0.01 0.01 0.01 0.01 0.01 0.00 0.00 0.00 0.00 0.00 0.00 0.01 0.01 0.01 0.01 0.01 0.00 0.01 0.04 0.05 0.05 0.04 0.04 0.05 0.03 0.01 0.00 0.00 0.00 0.00 0.00 0.01 0.02 0.03 0.03
0.00 0.00 0.00 0.00 0.00 0.01 0.01 0.01 0.01 0.01 0.01 0.01 0.01 0.00 0.00 0.00 0.00 0.00 0.00 0.01 0.01 0.02 0.01 0.00 0.01 0.02 0.04 0.04 0.03 0.03 0.04 0.03 0.02 0.01 0.01 0.00 0.00 0.00 0.00 0.01 0.02 0.03 0.03
0.00 0.00 0.00 0.00 0.00 0.01 0.01 0.01 0.01 0.01 0.01 0.01 0.01 0.00 0.00 0.00 0.00 0.00 0.00 0.01 0.01 0.01 0.01 0.01 0.01 0.02 0.02 0.01 0.01 0.01 0.01 0.01 0.01 0.01 0.00 0.00 0.00 0.00 0.00 0.01 0.01 0.03 0.03
0.00 0.00 0.00 0.00 0.01 0.01 0.01 0.01 0.01 0.01 0.01 0.01 0.01 0.00 0.00 0.00 0.00 0.00 0.01 0.00 0.00 0.01 0.01 0.00 0.00 0.00 0.00 0.00 0.00 0.00 0.00 0.01 0.01 0.01 0.01 0.00 0.00 0.00 0.01 0.01 0.02 0.02 0.03
0.00 0.00 0.00 0.00 0.01 0.01 0.01 0.01 0.01 0.01 0.01 0.01 0.01 0.00 0.00 0.00 0.00 0.00 0.00 0.00 0.01 0.02 0.02 0.01 0.00 0.00 0.00 0.00 0.00 0.00 0.00 0.00 0.01 0.01 0.01 0.01 0.01 0.01 0.01 0.01 0.02 0.02 0.03
0.00 0.00 0.00 0.00 0.01 0.01 0.01 0.01 0.01 0.01 0.01 0.01 0.01 0.00 0.00 0.00 0.00 0.00 0.00 0.00 0.01 0.01 0.01 0.00 0.00 0.00 0.00 0.00 0.00 0.00 0.00 0.01 0.01 0.01 0.01 0.01 0.01 0.01 0.01 0.01 0.02 0.02 0.03
0.00 0.00 0.00 0.00 0.01 0.01 0.01 0.01 0.01 0.01 0.01 0.01 0.01 0.01 0.00 0.00 0.00 0.00 0.00 0.00 0.00 0.00 0.00 0.00 0.00 0.00 0.00 0.01 0.01 0.01 0.01 0.01 0.01 0.01 0.01 0.01 0.01 0.02 0.02 0.02 0.02 0.02 0.03
0.00 0.00 0.00 0.00 0.01 0.01 0.01 0.01 0.01 0.01 0.01 0.01 0.01 0.00 0.00 0.00 0.00 0.00 0.00 0.00 0.00 0.00 0.00 0.00 0.00 0.01 0.01 0.01 0.01 0.01 0.01 0.01 0.01 0.01 0.01 0.01 0.02 0.02 0.02 0.03 0.03 0.03 0.03
0.00 0.00 0.00 0.01 0.01 0.01 0.01 0.01 0.01 0.01 0.01 0.01 0.01 0.01 0.01 0.00 0.00 0.00 0.00 0.00 0.00 0.00 0.00 0.00 0.01 0.01 0.01 0.01 0.01 0.01 0.01 0.01 0.01 0.01 0.01 0.01 0.02 0.02 0.02 0.03 0.03 0.04 0.04
0.00 0.00 0.00 0.00 0.01 0.01 0.01 0.01 0.01 0.01 0.01 0.01 0.01 0.01 0.01 0.00 0.00 0.00 0.00 0.00 0.00 0.00 0.00 0.00 0.00 0.01 0.01 0.01 0.01 0.01 0.01 0.01 0.01 0.01 0.01 0.01 0.01 0.02 0.02 0.03 0.03 0.04 0.04
0.00 0.00 0.00 0.00 0.01 0.01 0.01 0.01 0.01 0.01 0.01 0.01 0.01 0.01 0.01 0.00 0.00 0.00 0.00 0.00 0.00 0.00 0.00 0.00 0.00 0.01 0.01 0.01 0.01 0.01 0.01 0.01 0.01 0.01 0.01 0.01 0.01 0.01 0.02 0.03 0.03 0.04 0.05
0.00 0.00 0.00 0.00 0.01 0.01 0.01 0.01 0.01 0.01 0.02 0.02 0.01 0.01 0.01 0.00 0.00 0.00 0.00 0.00 0.00 0.00 0.00 0.01 0.01 0.01 0.01 0.01 0.01 0.01 0.01 0.01 0.01 0.01 0.01 0.01 0.01 0.02 0.02 0.03 0.03 0.04 0.05
0.00 0.01 0.01 0.01 0.01 0.01 0.02 0.02 0.02 0.02 0.02 0.02 0.01 0.01 0.00 0.00 0.00 0.00 0.00 0.00 0.00 0.00 0.00 0.00 0.00 0.00 0.01 0.01 0.01 0.02 0.02 0.02 0.01 0.01 0.02 0.01 0.01 0.02 0.02 0.03 0.04 0.05 0.05
0.01 0.01 0.01 0.01 0.01 0.02 0.02 0.02 0.03 0.02 0.02 0.02 0.01 0.01 0.00 0.00 0.00 0.00 0.00 0.00 0.00 0.00 0.00 0.00 0.00 0.00 0.01 0.01 0.01 0.01 0.02 0.02 0.02 0.02 0.02 0.02 0.02 0.02 0.02 0.03 0.04 0.05 0.06
0.01 0.01 0.01 0.02 0.02 0.03 0.03 0.03 0.03 0.03 0.02 0.02 0.01 0.01 0.00 0.00 0.00 0.00 0.00 0.00 0.00 0.00 0.00 0.00 0.00 0.00 0.01 0.01 0.01 0.01 0.02 0.02 0.01 0.02 0.02 0.02 0.02 0.02 0.02 0.03 0.04 0.04 0.05
0.01 0.02 0.02 0.02 0.03 0.03 0.04 0.04 0.03 0.03 0.02 0.02 0.01 0.01 0.00 0.00 0.00 0.00 0.00 0.00 0.00 0.00 0.00 0.00 0.00 0.00 0.01 0.01 0.01 0.01 0.01 0.01 0.01 0.01 0.02 0.02 0.02 0.02 0.02 0.02 0.03 0.04 0.05
MSLP
1012.92 1013.49 1014.09 1014.68 1015.25 1015.80 1016.35 1016.91 1017.51 1018.13 1018.77 1019.41 1020.00 1020.52 1020.94 1021.25 1021.46 1021.57 1021.64 1021.68 1021.73 1021.81 1021.91 1021.99 1022.03 1021.98 1021.80 1021.45 1020.94 1020.28 1019.51 1018.67 1017.83 1017.01 1016.26 1015.59 1014.97 1014.40 1013.81 1013.20 1012.52 1011.77 1010.96
1011.99 1012.51 1013.05 1013.58 1014.10 1014.63 1015.16 1015.72 1016.32 1016.95 1017.60 1018.25 1018.85 1019.37 1019.79 1020.09 1020.29 1020.41 1020.46 1020.49 1020.53 1020.58 1020.64 1020.69 1020.70 1020.61 1020.41 1020.05 1019.54 1018.90 1018.16 1017.37 1016.58 1015.83 1015.15 1014.55 1014.02 1013.53 1013.05 1012.53 1011.96 1011.33 1010.62
1011.03 1011.49 1011.96 1012.43 1012.89 1013.37 1013.86 1014.40 1014.98 1015.61 1016.26 1016.91 1017.52 1018.06 1018.49 1018.82 1019.04 1019.17 1019.23 1019.27 1019.29 1019.33 1019.36 1019.37 1019.33 1019.20 1018.96 1018.57 1018.05 1017.42 1016.71 1015.96 1015.23 1014.55 1013.94 1013.43 1012.99 1012.60 1012.22 1011.82 1011.37 1010.84 1010.23
1009.97 1010.37 1010.77 1011.16 1011.56 1011.97 1012.41 1012.92 1013.48 1014.09 1014.75 1015.41 1016.04 1016.61 1017.08 1017.44 1017.70 1017.86 1017.96 1018.01 1018.05 1018.07 1018.07 1018.05 1017.96 1017.78 1017.49 1017.08 1016.55 1015.92 1015.23 1014.53 1013.85 1013.24 1012.71 1012.29 1011.94 1011.65 1011.38 1011.09 1010.75 1010.33 1009.81
1008.78 1009.12 1009.44 1009.76 1010.09 1010.44 1010.84 1011.30 1011.85 1012.46 1013.13 1013.81 1014.48 1015.08 1015.60 1016.01 1016.32 1016.53 1016.67 1016.75 1016.79 1016.81 1016.79 1016.73 1016.60 1016.38 1016.06 1015.62 1015.08 1014.46 1013.80 1013.14 1012.52 1011.98 1011.54 1011.21 1010.96 1010.76 1010.59 1010.40 1010.16 1009.82 1009.38
1007.48 1007.75 1008.01 1008.26 1008.52 1008.82 1009.19 1009.64 1010.19 1010.81 1011.50 1012.22 1012.92 1013.57 1014.14 1014.61 1014.96 1015.22 1015.39 1015.50 1015.55 1015.57 1015.53 1015.44 1015.28 1015.03 1014.68 1014.23 1013.69 1013.09 1012.48 1011.88 1011.33 1010.87 1010.51 1010.26 1010.10 1009.99 1009.90 1009.79 1009.62 1009.36 1008.98
1006.12 1006.33 1006.52 1006.72 1006.94 1007.22 1007.58 1008.04 1008.60 1009.26 1009.99 1010.74 1011.49 1012.18 1012.79 1013.29 1013.68 1013.97 1014.16 1014.28 1014.33 1014.34 1014.29 1014.18 1014.00 1013.73 1013.38 1012.93 1012.42 1011.87 1011.31 1010.78 1010.32 1009.94 1009.67 1009.49 1009.40 1009.37 1009.34 1009.29 1009.17 1008.95 1008.61
1004.79 1004.94 1005.08 1005.24 1005.45 1005.72 1006.10 1006.59 1007.19 1007.90 1008.67 1009.47 1010.25 1010.97 1011.60 1012.11 1012.51 1012.80 1012.99 1013.10 1013.14 1013.14 1013.07 1012.95 1012.77 1012.51 1012.17 1011.77 1011.30 1010.82 1010.34 1009.89 1009.51 1009.21 1009.02 1008.91 1008.88 1008.89 1008.91 1008.89 1008.80 1008.60 1008.28
1003.57 1003.66 1003.76 1003.90 1004.11 1004.41 1004.82 1005.37 1006.03 1006.78 1007.60 1008.44 1009.24 1009.96 1010.58 1011.08 1011.45 1011.71 1011.88 1011.97 1011.99 1011.97 1011.90 1011.78 1011.61 1011.38 1011.08 1010.73 1010.35 1009.94 1009.54 1009.19 1008.89 1008.68 1008.54 1008.49 1008.50 1008.53 1008.56 1008.55 1008.46 1008.27 1007.96
1002.51 1002.54 1002.61 1002.74 1002.96 1003.30 1003.77 1004.37 1005.09 1005.89 1006.74 1007.59 1008.39 1009.09 1009.68 1010.13 1010.46 1010.68 1010.81 1010.86 1010.87 1010.84 1010.78 1010.68 1010.54 1010.36 1010.13 1009.85 1009.55 1009.23 1008.92 1008.65 1008.43 1008.28 1008.19 1008.17 1008.19 1008.22 1008.24 1008.22 1008.12 1007.92 1007.61
1001.62 1001.60 1001.64 1001.76 1002.00 1002.38 1002.90 1003.55 1004.31 1005.15 1006.01 1006.85 1007.62 1008.27 1008.80 1009.20 1009.47 1009.65 1009.74 1009.77 1009.78 1009.76 1009.73 1009.67 1009.59 1009.47 1009.32 1009.12 1008.90 1008.66 1008.43 1008.23 1008.07 1007.96 1007.90 1007.89 1007.90 1007.91 1007.90 1007.85 1007.72 1007.50 1007.18
1000.89 1000.81 1000.82 1000.93 1001.19 1001.60 1002.15 1002.84 1003.62 1004.46 1005.30 1006.10 1006.81 1007.41 1007.87 1008.21 1008.43 1008.57 1008.65 1008.69 1008.72 1008.75 1008.77 1008.78 1008.78 1008.74 1008.66 1008.54 1008.39 1008.22 1008.05 1007.89 1007.76 1007.67 1007.61 1007.58 1007.57 1007.54 1007.49 1007.39 1007.23 1006.98 1006.65
1000.27 1000.13 1000.11 1000.21 1000.47 1000.89 1001.46 1002.15 1002.92 1003.73 1004.52 1005.26 1005.89 1006.41 1006.81 1007.09 1007.29 1007.42 1007.52 1007.61 1007.70 1007.81 1007.92 1008.02 1008.10 1008.14 1008.13 1008.08 1007.98 1007.85 1007.70 1007.57 1007.44 1007.34 1007.27 1007.21 1007.16 1007.09 1006.99 1006.85 1006.64 1006.36 1006.01
999.71 999.52 999.46 999.55 999.81 1000.22 1000.77 1001.43 1002.16 1002.90 1003.62 1004.27 1004.82 1005.26 1005.60 1005.86 1006.05 1006.22 1006.38 1006.55 1006.75 1006.96 1007.18 1007.39 1007.56 1007.67 1007.73 1007.71 1007.63 1007.51 1007.37 1007.21 1007.07 1006.95 1006.85 1006.75 1006.66 1006.55 1006.41 1006.21 1005.97 1005.65 1005.28
999.17 998.94 998.86 998.93 999.17 999.55 1000.07 1000.67 1001.32 1001.98 1002.60 1003.15 1003.61 1003.98 1004.29 1004.54 1004.77 1005.00 1005.25 1005.55 1005.87 1006.22 1006.56 1006.87 1007.12 1007.30 1007.38 1007.38 1007.29 1007.16 1006.98 1006.80 1006.63 1006.47 1006.33 1006.21 1006.09 1005.94 1005.77 1005.54 1005.25 1004.90 1004.49
998.64 998.39 998.29 998.34 998.56 998.91 999.37 999.90 1000.46 1001.01 1001.51 1001.96 1002.34 1002.66 1002.94 1003.21 1003.50 1003.83 1004.21 1004.64 1005.10 1005.58 1006.04 1006.44 1006.76 1006.97 1007.06 1007.03 1006.92 1006.74 1006.53 1006.30 1006.09 1005.90 1005.74 1005.60 1005.46 1005.30 1005.11 1004.85 1004.54 1004.15 1003.70
998.10 997.85 997.75 997.80 998.00 998.31 998.71 999.16 999.61 1000.05 1000.45 1000.80 1001.10 1001.38 1001.66 1001.97 1002.33 1002.77 1003.27 1003.84 1004.44 1005.04 1005.59 1006.06 1006.41 1006.62 1006.69 1006.63 1006.47 1006.24 1005.97 1005.71 1005.46 1005.26 1005.10 1004.96 1004.82 1004.67 1004.47 1004.20 1003.86 1003.44 1002.94
997.56 997.33 997.25 997.31 997.50 997.78 998.13 998.49 998.85 999.18 999.48 999.74 999.98 1000.24 1000.53 1000.89 1001.33 1001.87 1002.49 1003.17 1003.88 1004.57 1005.18 1005.68 1006.03 1006.22 1006.25 1006.14 1005.92 1005.63 1005.33 1005.03 1004.78 1004.58 1004.43 1004.31 1004.20 1004.06 1003.87 1003.61 1003.24 1002.78 1002.22
997.01 996.82 996.78 996.87 997.06 997.32 997.61 997.91 998.19 998.43 998.65 998.84 999.04 999.29 999.60 1000.00 1000.52 1001.14 1001.85 1002.62 1003.40 1004.13 1004.76 1005.26 1005.58 1005.73 1005.71 1005.54 1005.27 1004.94 1004.61 1004.31 1004.06 1003.88 1003.76 1003.69 1003.61 1003.51 1003.33 1003.06 1002.68 1002.18 1001.56
996.43 996.30 996.31 996.43 996.64 996.89 997.15 997.40 997.61 997.79 997.95 998.10 998.29 998.53 998.86 999.32 999.89 1000.57 1001.34 1002.15 1002.96 1003.69 1004.31 1004.77 1005.05 1005.14 1005.06 1004.85 1004.54 1004.19 1003.85 1003.56 1003.35 1003.21 1003.14 1003.10 1003.07 1002.99 1002.84 1002.56 1002.16 1001.62 1000.94
995.81 995.75 995.81 995.97 996.19 996.44 996.69 996.90 997.08 997.23 997.36 997.49 997.68 997.94 998.31 998.80 999.41 1000.13 1000.92 1001.74 1002.53 1003.23 1003.81 1004.21 1004.43 1004.46 1004.33 1004.08 1003.76 1003.41 1003.10 1002.85 1002.67 1002.58 1002.56 1002.57 1002.57 1002.51 1002.36 1002.08 1001.65 1001.06 1000.33
995.13 995.13 995.24 995.44 995.68 995.93 996.17 996.38 996.55 996.69 996.82 996.97 997.18 997.47 997.87 998.40 999.03 999.76 1000.55 1001.34 1002.09 1002.73 1003.24 1003.57 1003.73 1003.71 1003.55 1003.29 1002.98 1002.66 1002.39 1002.18 1002.07 1002.03 1002.05 1002.09 1002.10 1002.05 1001.88 1001.58 1001.11 1000.49 999.71
994.38 994.42 994.58 994.80 995.06 995.33 995.58 995.79 995.98 996.14 996.30 996.49 996.75 997.09 997.53 998.08 998.73 999.45 1000.21 1000.95 1001.63 1002.20 1002.62 1002.89 1002.99 1002.94 1002.77 1002.51 1002.23 1001.97 1001.75 1001.61 1001.54 1001.55 1001.60 1001.65 1001.66 1001.58 1001.39 1001.04 1000.54 999.87 999.06
993.58 993.66 993.84 994.08 994.36 994.64 994.91 995.15 995.37 995.57 995.79 996.05 996.37 996.77 997.25 997.83 998.48 999.18 999.89 1000.56 1001.16 1001.65 1002.00 1002.19 1002.25 1002.18 1002.01 1001.79 1001.56 1001.35 1001.20 1001.12 1001.11 1001.14 1001.20 1001.25 1001.23 1001.11 1000.87 1000.48 999.93 999.22 998.39
992.79 992.89 993.09 993.34 993.63 993.93 994.21 994.49 994.76 995.04 995.33 995.66 996.06 996.52 997.05 997.65 998.30 998.96 999.61 1000.21 1000.72 1001.12 1001.39 1001.53 1001.55 1001.47 1001.32 1001.15 1000.97 1000.84 1000.75 1000.73 1000.75 1000.80 1000.86 1000.87 1000.81 1000.64 1000.34 999.89 999.29 998.57 997.72
992.09 992.20 992.40 992.66 992.95 993.27 993.59 993.91 994.24 994.59 994.97 995.38 995.85 996.38 996.95 997.56 998.19 998.81 999.39 999.91 1000.33 1000.64 1000.84 1000.92 1000.92 1000.84 1000.73 1000.60 1000.49 1000.42 1000.39 1000.41 1000.47 1000.52 1000.56 1000.53 1000.41 1000.18 999.82 999.32 998.69 997.94 997.09
Thickness
5576 5564 5553 5541 5526 5513 5500 5488 5474 5460 5445 5431 5418 5404 5390 5376 5362 5347 5333 5318 5304 5290 5276 5264 5253 5240 5229 5218 5207 5197 5188 5179 5179 5188 5184 5180 5175 5172 5171 5169 5170 5175 5183
5573 5561 5549 5537 5522 5509 5497 5485 5470 5456 5442 5428 5414 5401 5387 5373 5358 5344 5330 5316 5301 5288 5276 5263 5252 5240 5229 5218 5208 5199 5191 5183 5177 5180 5184 5179 5175 5171 5170 5169 5171 5174 5180
5566 5555 5544 5531 5519 5508 5496 5482 5467 5452 5438 5424 5411 5398 5384 5371 5356 5342 5328 5314 5300 5287 5274 5262 5251 5239 5229 5219 5209 5201 5194 5188 5181 5178 5181 5178 5175 5171 5168 5169 5170 5173 5178
5560 5550 5540 5530 5518 5506 5493 5478 5464 5450 5436 5422 5408 5395 5382 5368 5354 5339 5325 5312 5298 5286 5274 5262 5251 5239 5229 5220 5212 5204 5197 5191 5184 5179 5178 5177 5174 5171 5166 5167 5170 5174 5178
5556 5547 5539 5528 5514 5501 5488 5475 5461 5447 5434 5419 5405 5391 5378 5364 5351 5336 5323 5311 5297 5286 5274 5263 5252 5241 5232 5223 5215 5208 5199 5193 5187 5182 5179 5176 5173 5169 5165 5165 5167 5172 5178
5552 5545 5534 5521 5509 5497 5485 5471 5457 5443 5429 5415 5402 5389 5375 5363 5351 5339 5325 5312 5299 5287 5276 5264 5252 5242 5233 5226 5218 5211 5203 5195 5188 5182 5179 5173 5170 5167 5164 5163 5164 5168 5176
5547 5538 5527 5515 5504 5493 5480 5466 5453 5440 5426 5412 5399 5386 5373 5361 5349 5337 5325 5313 5300 5287 5274 5262 5252 5242 5233 5223 5215 5209 5202 5195 5190 5183 5177 5173 5169 5166 5162 5162 5163 5166 5172
5540 5531 5521 5510 5499 5487 5473 5462 5450 5436 5423 5410 5396 5383 5370 5358 5346 5335 5323 5311 5298 5285 5272 5260 5249 5240 5229 5221 5215 5208 5200 5194 5188 5182 5176 5173 5169 5167 5164 5164 5165 5168 5173
5533 5525 5516 5504 5493 5481 5470 5459 5446 5431 5418 5404 5392 5379 5367 5355 5344 5332 5320 5307 5295 5282 5270 5258 5247 5237 5230 5224 5217 5208 5201 5195 5189 5184 5180 5175 5172 5169 5167 5165 5165 5166 5172
5528 5520 5509 5498 5487 5477 5466 5453 5440 5427 5414 5400 5387 5375 5363 5351 5339 5329 5317 5304 5293 5281 5270 5257 5248 5239 5231 5224 5215 5205 5198 5194 5188 5182 5177 5172 5168 5165 5165 5163 5161 5162 5167
5520 5511 5501 5491 5481 5471 5459 5446 5433 5420 5408 5395 5382 5371 5358 5347 5335 5325 5314 5302 5290 5278 5268 5257 5245 5237 5230 5223 5215 5204 5197 5193 5186 5179 5173 5169 5166 5163 5162 5162 5161 5162 5166
5510 5502 5494 5485 5474 5464 5450 5438 5425 5413 5400 5388 5376 5365 5354 5343 5333 5321 5311 5301 5290 5276 5266 5254 5244 5236 5229 5221 5212 5204 5198 5190 5181 5175 5171 5168 5165 5164 5163 5164 5165 5167 5170
5501 5495 5487 5477 5467 5457 5445 5432 5418 5406 5395 5384 5372 5362 5352 5340 5328 5320 5309 5299 5287 5275 5263 5253 5244 5235 5226 5215 5207 5201 5193 5183 5177 5173 5169 5167 5165 5164 5164 5166 5169 5171 5175
5492 5486 5478 5468 5458 5448 5437 5427 5415 5403 5392 5382 5370 5360 5349 5337 5325 5314 5303 5292 5283 5271 5259 5249 5240 5230 5220 5211 5203 5194 5186 5180 5175 5172 5169 5166 5164 5164 5165 5167 5170 5174 5179
5483 5477 5469 5460 5450 5439 5430 5422 5412 5404 5393 5381 5371 5360 5346 5334 5325 5314 5301 5289 5277 5266 5256 5243 5232 5222 5213 5205 5197 5190 5183 5178 5173 5170 5167 5165 5164 5165 5167 5169 5171 5175 5180
5472 5466 5459 5451 5442 5432 5421 5412 5406 5397 5388 5379 5368 5356 5345 5335 5324 5313 5302 5290 5278 5266 5252 5238 5227 5217 5209 5201 5193 5187 5180 5175 5171 5168 5166 5164 5164 5164 5167 5170 5173 5177 5182
5461 5457 5449 5442 5432 5424 5414 5406 5396 5389 5381 5373 5364 5353 5343 5332 5321 5310 5299 5287 5275 5262 5246 5233 5223 5214 5205 5197 5189 5183 5178 5173 5169 5166 5164 5163 5163 5165 5167 5171 5175 5179 5186
5451 5446 5440 5432 5423 5415 5407 5399 5392 5382 5373 5365 5358 5350 5339 5328 5317 5306 5295 5282 5267 5255 5241 5230 5220 5211 5202 5194 5187 5181 5176 5172 5168 5166 5164 5163 5163 5165 5168 5172 5177 5182 5189
5441 5435 5429 5421 5413 5405 5398 5390 5383 5376 5368 5359 5349 5341 5334 5324 5313 5302 5290 5275 5262 5250 5238 5228 5218 5209 5201 5193 5186 5180 5175 5171 5169 5166 5165 5165 5165 5167 5171 5175 5180 5187 5195
5431 5427 5420 5411 5403 5396 5388 5381 5374 5368 5361 5353 5344 5336 5327 5316 5305 5295 5284 5272 5260 5248 5237 5227 5217 5208 5200 5192 5186 5180 5176 5173 5171 5169 5168 5168 5169 5171 5175 5179 5185 5191 5198
5421 5415 5412 5404 5394 5387 5380 5373 5367 5360 5354 5348 5341 5333 5324 5313 5303 5292 5281 5270 5258 5247 5237 5226 5217 5208 5201 5193 5187 5182 5178 5176 5175 5173 5172 5173 5174 5177 5180 5184 5190 5196 5204
5410 5404 5398 5393 5386 5379 5372 5366 5359 5354 5348 5342 5335 5328 5323 5310 5299 5289 5279 5269 5258 5247 5237 5227 5218 5210 5202 5196 5191 5186 5183 5181 5180 5178 5177 5178 5180 5182 5185 5190 5195 5202 5210
5401 5396 5390 5384 5378 5373 5367 5359 5353 5348 5343 5337 5330 5323 5317 5307 5297 5287 5277 5267 5256 5247 5237 5228 5220 5212 5205 5200 5195 5191 5188 5187 5185 5183 5183 5184 5186 5188 5191 5195 5201 5208 5216
5394 5388 5383 5377 5371 5365 5360 5354 5348 5343 5338 5332 5326 5319 5312 5304 5295 5285 5275 5265 5256 5247 5238 5229 5222 5215 5209 5204 5200 5197 5194 5192 5191 5190 5189 5189 5191 5194 5197 5201 5207 5214 5222
5388 5382 5377 5370 5365 5360 5354 5349 5344 5339 5335 5329 5322 5316 5309 5301 5292 5283 5273 5264 5255 5247 5238 5231 5223 5217 5212 5208 5204 5201 5200 5199 5197 5196 5195 5195 5196 5199 5203 5207 5214 5221 5229
5383 5377 5371 5365 5360 5355 5351 5346 5341 5336 5331 5326 5320 5313 5306 5298 5290 5281 5272 5263 5254 5247 5239 5232 5225 5220 5215 5211 5208 5206 5205 5204 5203 5202 5201 5200 5201 5205 5209 5214 5220 5227 5235